Location: Chuathbaluk
(61.5726°N, 159.2454°W)
Time: 15:50:28
(UTC+00:00)

S-56A Canister/Altair - All Passes

Search period start: 26 November 2020 00:00
Search period end: 06 December 2020 00:00
Orbit: 633 x 2499 km, 38.9° (Epoch: 25 November)

Date Brightness Start Highest point End Pass type
(mag) Time Alt. Az. Time Alt. Az. Time Alt. Az.
28 Nov - 08:19:20 10° SSW 08:21:31 11° S 08:23:31 10° SSE visible
29 Nov - 07:45:43 10° SSW 07:48:57 12° S 07:51:49 10° SSE visible
30 Nov - 07:12:15 10° SSW 07:16:21 14° S 07:19:52 10° SSE visible
01 Dec - 06:38:52 10° SSW 06:43:42 15° S 06:47:48 10° SSE visible
01 Dec - 08:43:07 10° SW 08:45:50 12° SSW 08:48:17 10° S visible
02 Dec - 06:05:31 10° SSW 06:11:01 15° S 06:15:37 10° SE visible
02 Dec - 08:09:14 10° SW 08:13:17 14° SSW 08:16:45 10° S visible
03 Dec - 05:32:13 10° SSW 05:38:16 16° S 05:43:21 10° SE visible
03 Dec - 07:35:33 10° SW 07:40:40 15° SSW 07:44:57 10° SSE visible
04 Dec - 04:58:58 10° SSW 05:05:30 16° SSE 05:10:59 10° SE visible
04 Dec - 07:01:58 10° SW 07:08:01 17° S 07:13:00 10° SSE visible
05 Dec - 04:25:47 10° SSW 04:32:41 17° SSE 04:38:31 10° SE visible
05 Dec - 06:28:24 10° SW 06:35:19 18° S 06:40:55 10° SSE visible
05 Dec - 08:34:35 10° SW 08:37:20 11° SSW 08:39:49 10° SSW visible
